Probability
0 0 0 0 0 0 0 0 0 0 0 0 0 0 0 0 0 0 0 0 0 0 0 0 0 0 0 0 0 0 0 0 0 0 0 0 0 0 1 2 1 0 0 0
0 0 0 0 0 0 0 0 0 0 0 0 0 0 0 0 0 0 0 0 0 0 0 0 0 0 0 0 0 0 0 0 0 0 0 0 0 1 2 2 1 0 0 0
0 0 0 0 0 0 0 0 0 0 0 0 0 0 0 0 0 0 0 0 0 0 0 0 0 0 0 0 0 0 0 0 0 0 0 0 0 1 2 2 1 0 0 0
0 0 0 0 0 0 0 0 0 0 0 0 0 0 0 0 0 0 0 0 0 0 0 0 0 0 0 0 0 0 0 0 0 0 0 0 0 1 2 1 0 0 0 0
0 0 0 0 0 0 0 0 0 0 0 0 0 0 0 0 0 0 0 0 0 0 0 0 0 0 0 0 0 0 0 0 0 0 0 0 0 1 1 0 0 0 0 0
0 0 0 0 0 0 0 0 0 0 0 0 0 0 0 0 0 0 0 0 0 0 0 0 0 0 0 0 0 0 0 0 0 0 0 0 0 0 0 0 0 0 0 0
0 0 0 0 0 0 0 0 0 0 0 0 0 0 0 0 0 0 0 0 0 0 0 0 0 0 0 0 0 0 0 0 0 0 0 0 0 0 0 0 0 0 0 0
0 0 0 0 0 0 0 0 0 0 0 0 0 0 0 0 0 0 0 0 0 0 0 0 0 0 0 0 0 0 0 0 0 0 0 0 0 0 0 0 0 0 0 0
0 0 0 0 0 0 0 0 0 0 0 0 0 0 0 0 0 0 0 0 0 0 0 0 0 0 0 0 0 0 0 0 0 0 0 0 0 0 0 0 0 0 0 0
0 0 0 0 0 0 0 0 0 0 0 0 0 0 0 0 0 0 0 0 0 0 0 0 0 0 0 0 0 0 0 0 0 0 0 0 0 0 0 0 0 0 0 0
0 0 0 0 0 0 0 0 0 0 0 0 0 0 0 0 0 0 0 0 0 0 0 0 0 0 0 0 0 0 0 0 0 0 0 0 0 0 0 0 0 0 0 0
0 0 0 0 0 0 0 0 0 0 0 0 0 0 0 0 0 0 0 0 0 0 0 0 0 0 0 0 0 0 0 0 0 0 0 0 0 0 0 0 0 0 0 0
0 0 0 0 0 0 0 0 0 0 0 0 0 0 0 0 0 0 0 0 0 0 0 0 0 0 0 0 0 0 0 0 0 0 0 0 0 0 0 0 0 0 0 0
0 0 0 0 0 0 0 0 0 0 0 0 0 0 0 0 0 0 0 0 0 0 0 0 0 0 0 0 0 0 0 0 0 0 0 0 0 0 0 0 0 0 0 0
0 0 0 0 0 0 0 0 0 0 0 0 0 0 0 0 0 0 0 0 0 0 0 0 0 0 0 0 0 0 0 0 0 0 0 0 0 0 0 0 0 0 0 0
0 0 0 0 0 0 0 0 0 0 0 0 0 0 0 0 0 0 0 0 0 0 0 0 0 0 0 0 0 0 0 0 0 0 0 0 0 0 0 0 0 0 0 0
0 0 0 0 0 0 0 0 0 0 0 0 0 0 0 0 0 0 0 0 0 0 0 0 0 0 0 0 0 0 0 0 0 0 0 0 0 0 0 0 0 0 0 0
0 0 0 0 0 0 0 0 0 0 0 0 0 0 0 0 0 0 0 0 0 0 0 0 0 0 0 0 0 0 0 0 0 0 0 0 0 0 0 0 0 0 0 0
0 0 0 0 0 0 0 0 0 0 0 0 0 0 0 0 0 0 0 0 0 0 0 0 0 0 0 0 0 0 0 0 0 0 0 0 0 0 0 0 0 0 0 0
0 0 0 0 0 0 0 0 0 0 0 0 0 0 0 0 0 0 0 0 0 0 0 0 0 0 0 0 0 0 0 0 0 0 0 0 0 0 0 0 0 0 0 0
0 0 0 0 0 0 0 0 0 0 0 0 0 0 0 0 0 0 0 0 0 0 0 0 0 0 0 0 0 0 0 0 0 0 0 0 0 0 0 0 0 0 0 0
0 0 0 0 0 0 0 0 0 0 0 0 0 0 0 0 0 0 0 0 0 0 0 0 0 0 0 0 0 0 0 0 0 0 0 0 0 0 0 0 0 0 0 0
0 0 0 0 0 0 0 0 0 0 0 0 0 0 0 0 0 0 0 0 0 0 0 0 0 0 0 0 0 0 0 0 0 0 0 0 0 0 0 0 0 0 0 0
0 0 0 0 0 0 0 0 0 0 0 0 0 0 0 0 0 0 0 0 0 0 0 0 0 0 0 0 0 0 0 0 0 0 0 0 0 0 0 0 0 0 0 0
0 0 0 0 0 0 0 0 0 0 0 0 0 0 0 0 0 0 0 0 0 0 0 0 0 0 0 0 0 0 0 0 0 0 0 0 0 0 0 0 0 0 0 0
0 0 0 0 0 0 0 0 0 0 0 0 0 0 0 0 0 0 0 0 0 0 0 0 0 0 0 0 0 0 0 0 0 0 0 0 0 0 0 0 0 0 0 0
0 0 0 0 0 0 0 0 0 0 0 0 0 0 0 0 0 0 0 0 0 0 0 0 0 0 0 0 0 0 0 0 0 0 0 0 0 0 0 0 0 0 0 0
Wind_Speed
7 6 5 7 9 9 11 10 10 11 11 13 9 8 7 6 6 6 5 4 5 4 4 4 3 3 3 3 3 3 4 4 5 4 4 3 3 3 3 3 3 2 2 2
5 6 7 10 12 12 12 11 13 13 15 11 8 6 6 7 6 7 6 6 5 4 4 4 4 4 3 4 3 3 4 5 4 4 3 3 3 3 3 3 2 2 2 2
5 3 3 10 11 11 9 9 9 14 14 7 6 7 8 8 7 7 6 6 5 5 5 5 5 4 4 4 3 3 4 4 4 4 4 4 3 3 3 3 2 2 3 3
3 1 9 8 3 7 8 9 10 9 8 6 8 8 8 6 6 7 6 5 5 5 5 4 4 4 3 3 3 3 3 3 3 3 4 3 3 3 3 3 3 3 3 3
3 4 9 7 4 4 6 8 7 9 10 8 5 4 5 5 5 6 6 6 5 4 4 4 4 4 3 3 3 3 4 4 4 4 4 3 4 3 3 2 2 2 2 3
4 5 8 6 3 1 2 7 5 5 7 5 1 2 6 4 4 4 4 3 2 2 2 3 3 3 4 4 3 4 4 4 4 4 4 4 4 3 2 2 2 2 2 2
6 7 10 6 2 3 3 7 3 4 5 4 5 6 5 4 4 3 3 3 2 2 2 3 3 3 3 3 4 4 3 3 3 3 4 3 3 2 2 2 2 2 2 2
6 7 11 4 5 7 8 3 2 3 3 4 5 5 4 4 4 4 3 3 2 2 2 2 2 3 3 4 4 2 2 2 3 3 3 2 2 2 2 2 2 2 2 2
10 10 5 6 7 5 3 3 4 4 4 4 4 5 4 4 4 4 3 3 2 2 2 2 2 3 4 4 3 2 2 3 3 2 2 2 2 2 2 2 2 2 2 2
6 9 7 6 6 5 5 5 5 4 4 4 5 5 4 4 4 3 3 3 2 2 2 2 2 3 4 3 3 3 3 3 2 2 2 2 2 2 2 2 3 2 2 2
8 7 5 6 7 7 6 5 4 4 4 4 4 4 4 4 4 4 3 3 2 2 3 3 3 3 3 3 3 3 3 3 2 2 2 2 2 2 3 3 4 3 3 3
10 8 7 7 6 6 5 6 5 4 4 3 4 5 4 4 4 3 3 2 2 2 3 3 3 3 3 3 3 3 3 2 2 2 2 2 1 1 3 3 4 4 4 3
9 6 6 5 4 4 5 5 4 4 4 3 3 3 3 4 3 3 3 2 3 3 3 3 2 3 3 2 3 3 3 3 2 2 2 2 2 2 1 2 2 3 3 4
6 4 4 5 5 4 4 4 3 2 2 2 2 2 2 2 2 3 3 4 3 3 3 2 2 3 3 2 2 3 3 3 2 2 2 2 2 2 2 2 2 2 2 3
6 6 6 4 3 3 3 2 2 2 2 2 2 2 2 2 3 4 3 2 2 2 2 2 3 3 2 2 3 3 2 2 2 2 2 2 2 2 2 2 2 2 1 2
4 4 4 4 5 4 3 3 3 4 3 3 3 3 3 3 3 3 2 1 2 3 3 3 4 4 2 2 2 2 2 3 2 2 2 2 2 2 2 2 2 2 2 2
6 6 5 5 5 5 5 5 5 5 4 4 4 3 2 2 2 3 3 3 3 4 4 4 4 3 2 2 3 2 2 2 3 2 2 2 2 2 2 2 2 2 2 2
8 8 7 6 6 5 4 4 4 4 4 4 3 2 2 2 3 4 3 2 2 3 3 3 3 2 2 2 2 2 2 1 2 2 2 2 2 2 2 2 2 2 1 1
4 5 5 5 5 5 4 4 4 3 3 2 2 3 3 3 3 3 2 1 2 3 4 3 2 1 1 2 2 2 2 2 1 1 1 2 1 1 1 1 1 1 1 1
3 3 3 3 3 3 3 3 2 2 2 2 2 2 2 3 2 1 1 2 3 3 3 2 1 1 1 1 2 2 2 2 2 1 1 1 1 1 1 1 1 1 1 1
3 3 3 3 2 2 2 2 2 2 2 2 2 3 3 2 1 1 1 2 3 2 1 1 1 1 1 1 2 2 2 2 2 2 1 1 1 1 1 1 1 1 1 1
3 3 3 2 2 1 1 1 2 2 1 1 2 2 1 1 1 1 1 2 2 2 1 1 0 0 1 1 1 2 2 2 1 1 1 1 1 1 1 1 1 1 1 1
2 2 2 2 2 1 0 0 1 1 2 2 2 2 2 1 1 1 2 2 1 1 1 0 0 0 1 1 1 1 1 1 1 1 1 1 1 1 1 1 1 1 1 1
2 2 2 2 2 2 1 1 0 0 1 1 1 1 1 1 1 1 1 1 1 1 0 0 1 1 1 1 1 1 1 1 1 1 1 1 1 1 1 1 1 1 1 1
2 2 2 2 2 2 2 1 0 0 0 0 1 1 1 1 1 1 1 1 1 0 0 0 1 1 1 0 1 1 1 1 1 1 1 1 1 1 1 0 1 1 1 1
2 2 2 2 2 2 1 1 1 1 1 0 1 1 1 0 0 0 0 0 0 0 0 0 1 1 1 1 1 1 0 0 0 0 0 1 1 1 0 0 1 1 1 1
1 1 1 0 1 1 1 1 2 2 2 1 1 1 0 0 0 0 0 0 0 0 0 0 0 1 1 1 1 1 0 0 0 0 0 1 1 0 1 1 1 1 0 0
Wind_Direction
253 258 234 234 235 219 215 218 227 248 252 262 268 266 271 272 273 273 262 252 239 230 226 224 220 217 214 220 218 213 211 216 225 228 225 230 234 240 242 229 227 227 234 248
266 254 245 255 246 231 230 231 239 257 266 263 274 273 273 273 265 259 254 251 250 240 229 224 217 216 217 223 222 214 217 223 226 224 222 227 232 241 236 231 231 228 233 238
256 272 283 258 233 218 221 217 212 236 251 272 280 273 266 264 256 254 253 250 245 239 233 225 215 207 212 217 216 217 225 226 223 217 218 223 228 232 226 223 223 228 235 235
250 257 239 245 218 208 221 235 225 241 262 262 259 269 268 255 246 254 252 252 246 235 236 228 211 211 209 204 206 216 222 224 220 214 221 224 219 223 227 222 221 226 237 244
202 241 270 283 252 197 206 251 230 238 258 269 278 303 290 264 245 245 253 252 244 232 233 218 212 207 195 202 207 214 220 221 221 217 221 218 219 225 226 224 232 232 232 233
200 223 244 254 256 218 136 269 254 226 249 264 277 289 276 288 287 278 276 262 249 239 233 213 215 189 184 198 203 218 221 220 216 210 209 214 219 226 227 225 230 230 237 233
213 236 260 254 227 112 172 252 257 221 234 223 215 230 260 295 297 287 283 278 252 225 223 220 206 178 189 203 219 224 216 211 213 211 212 211 211 211 215 223 226 225 235 242
190 222 252 210 147 188 224 249 243 236 229 231 239 256 268 284 293 302 299 289 262 236 238 229 191 178 196 224 231 213 199 207 220 217 214 203 195 207 209 206 212 223 231 250
199 218 233 185 201 224 222 242 251 241 243 235 244 258 269 279 285 287 283 271 258 225 231 245 210 191 208 234 223 201 198 213 224 223 221 206 198 205 209 201 206 225 226 239
238 252 250 238 242 253 245 242 251 249 246 234 241 249 263 276 285 289 284 270 259 213 216 246 240 221 222 227 207 193 204 218 221 212 219 209 201 205 208 210 214 222 223 234
241 259 275 253 235 240 248 249 255 261 244 231 231 248 255 268 274 277 281 274 243 217 224 243 248 244 236 215 194 202 211 215 215 213 212 205 213 223 225 227 220 218 219 220
230 224 213 241 235 225 232 243 241 239 254 247 226 243 256 265 271 272 271 269 261 244 240 250 249 249 246 219 196 198 209 212 209 207 205 203 214 268 269 249 246 247 235 232
229 228 220 239 243 228 223 232 232 221 221 238 245 233 245 259 266 270 269 262 253 251 242 241 246 247 253 233 203 200 208 212 205 200 202 206 209 214 256 286 261 254 247 246
224 219 246 241 238 233 220 223 223 229 226 218 231 241 247 264 275 271 265 260 257 256 251 241 241 247 246 226 210 213 211 215 211 201 199 199 205 213 217 227 255 273 264 254
229 217 218 222 223 222 214 201 204 237 244 253 229 229 236 247 261 266 271 271 270 271 265 253 250 260 257 214 204 210 208 212 212 199 194 199 207 211 216 225 238 252 268 265
216 214 213 215 221 219 205 202 214 235 235 240 242 245 240 239 255 271 278 258 244 261 263 255 254 256 239 204 202 205 213 223 207 195 195 197 205 208 213 220 229 229 232 237
198 214 210 214 218 219 217 217 217 224 228 232 239 242 242 250 269 280 282 269 252 257 259 253 257 255 223 202 193 200 204 210 204 196 203 206 205 209 210 211 223 232 239 239
212 213 203 199 206 215 224 222 217 218 225 234 233 226 227 234 248 262 273 283 290 292 282 270 259 234 218 206 187 189 192 200 206 208 206 207 208 206 202 207 219 229 246 253
202 203 204 206 204 201 208 217 219 224 229 218 214 228 236 242 251 264 275 267 266 281 289 284 272 218 219 214 171 174 180 186 197 210 203 215 220 210 201 203 218 225 221 229
180 181 186 192 188 187 198 205 203 219 226 206 209 229 249 260 263 265 260 254 254 262 276 283 245 220 215 200 166 167 174 180 186 192 197 198 204 219 217 212 215 221 222 224
173 173 175 182 189 194 197 191 184 208 223 198 201 220 238 259 257 231 230 276 290 297 293 283 239 220 186 168 154 157 168 173 178 187 193 202 216 225 224 217 216 219 221 224
172 170 178 175 164 190 222 180 173 184 197 206 216 216 221 256 263 259 244 251 279 317 339 274 270 110 128 142 144 152 162 166 172 178 186 194 204 219 229 232 234 237 229 221
169 169 172 175 176 173 104 113 168 178 192 207 216 220 226 242 235 228 274 283 273 304 330 266 97 81 94 115 144 154 160 164 173 181 192 203 210 214 219 231 238 240 240 238
168 171 177 163 136 129 173 265 219 177 186 221 230 221 212 236 281 262 258 280 300 312 313 291 93 102 95 76 138 151 160 171 180 184 191 200 209 218 223 227 240 255 253 253
173 168 161 156 167 202 214 196 102 103 128 318 304 290 254 224 229 262 276 264 266 302 330 268 118 109 100 112 155 157 162 174 174 171 178 185 201 218 231 235 245 254 251 245
175 179 193 199 200 202 194 178 186 206 191 240 324 330 330 342 101 277 288 272 239 211 331 216 156 130 125 140 154 151 148 181 213 176 169 177 184 183 207 255 273 273 264 259
144 158 165 196 235 204 195 193 199 218 214 200 251 291 298 351 45 355 324 301 227 94 81 89 102 120 135 150 164 154 144 147 151 163 167 169 169 183 209 225 258 272 259 238